BAW946 EGLL-LDSP

Flight info

Callsign BAW946
Flight time 1h 57m
Altitude 39000
Route DET1J DET L6 DVR UL9 KONAN DCT KOK DCT PITES DCT EDISA DCT PICWI DCT UTABA DCT BEMKI DCT ELMEM DCT DIRAB DCT PEVAL DCT SAL SAL1Y
Aircraft A320/M-SDE3FGIJ1KRWXY/SB1

Departure

Time 2026-05-04 11:22
Airport London Heathrow Airport (EGLL)

Arrival

Time 2026-05-04 13:19
Airport Split Saint Jerome Airport (LDSP)
Time Latitude Longitude Altitude Speed Heading
2026-05-04 11:05 51.46930 -0.48859 89 ft 0 kts 360°
2026-05-04 11:14 51.46916 -0.48859 89 ft 4 kts
2026-05-04 11:14 51.46890 -0.48870 86 ft 4 kts 36°
2026-05-04 11:14 51.46877 -0.48898 87 ft 2 kts 89°
2026-05-04 11:16 51.46877 -0.48900 87 ft 1 kts 90°
2026-05-04 11:16 51.46876 -0.48826 86 ft 11 kts 90°
2026-05-04 11:16 51.46825 -0.48750 86 ft 13 kts 175°
2026-05-04 11:17 51.46716 -0.48747 86 ft 17 kts 180°
2026-05-04 11:17 51.46652 -0.48624 86 ft 18 kts 90°
2026-05-04 11:19 51.46658 -0.47131 86 ft 23 kts 91°
2026-05-04 11:19 51.46658 -0.46860 88 ft 25 kts 90°
2026-05-04 11:19 51.46659 -0.46565 88 ft 27 kts 89°
2026-05-04 11:19 51.46661 -0.46247 86 ft 29 kts 90°
2026-05-04 11:20 51.46663 -0.45904 86 ft 31 kts 89°
2026-05-04 11:20 51.46663 -0.45641 86 ft 18 kts 90°
2026-05-04 11:20 51.46663 -0.45465 86 ft 16 kts 90°
2026-05-04 11:20 51.46663 -0.45270 86 ft 19 kts 90°
2026-05-04 11:22 51.46464 -0.49879 1246 ft 172 kts 271°
2026-05-04 11:22 51.46382 -0.51909 2009 ft 195 kts 257°
2026-05-04 11:23 51.45738 -0.53973 2717 ft 222 kts 229°
2026-05-04 11:23 51.44402 -0.55427 3419 ft 248 kts 197°
2026-05-04 11:24 51.36343 -0.43959 9686 ft 295 kts 137°
2026-05-04 11:25 51.34840 -0.41678 10691 ft 303 kts 141°
2026-05-04 11:25 51.33139 -0.39457 11184 ft 328 kts 143°
2026-05-04 11:25 51.31405 -0.36917 11765 ft 349 kts 130°
2026-05-04 11:26 51.29705 -0.29362 12939 ft 392 kts 97°
2026-05-04 11:27 51.27907 0.03523 15287 ft 467 kts 91°
2026-05-04 11:28 51.27599 0.08846 15418 ft 482 kts 91°
2026-05-04 11:28 51.27282 0.14170 15686 ft 492 kts 91°
2026-05-04 11:28 51.26947 0.19632 16141 ft 497 kts 91°
2026-05-04 11:28 51.26603 0.25148 16623 ft 500 kts 92°
2026-05-04 11:29 51.26255 0.30692 17099 ft 504 kts 92°
2026-05-04 11:29 51.25907 0.36268 17584 ft 506 kts 92°
2026-05-04 11:29 51.25558 0.41875 18052 ft 509 kts 92°
2026-05-04 11:29 51.25207 0.47526 18446 ft 514 kts 92°
2026-05-04 11:31 51.22611 0.87961 21213 ft 535 kts 92°
2026-05-04 11:33 51.19784 1.29239 23772 ft 545 kts 92°
2026-05-04 11:33 51.19360 1.35361 23902 ft 552 kts 94°
2026-05-04 11:33 51.18561 1.41376 24134 ft 559 kts 107°
2026-05-04 11:34 51.17149 1.47156 24508 ft 560 kts 111°
2026-05-04 11:34 51.15688 1.52902 24916 ft 560 kts 111°
2026-05-04 11:34 51.14212 1.58660 25162 ft 563 kts 111°
2026-05-04 11:34 51.12721 1.64428 25516 ft 563 kts 111°
2026-05-04 11:35 51.11223 1.70189 25932 ft 563 kts 111°
2026-05-04 11:35 51.09721 1.75937 26359 ft 562 kts 111°
2026-05-04 11:35 51.08242 1.81603 26786 ft 561 kts 111°
2026-05-04 11:35 51.06747 1.87340 27214 ft 560 kts 111°
2026-05-04 11:36 51.05237 1.93134 27658 ft 559 kts 111°
2026-05-04 11:36 51.03767 1.98772 28075 ft 559 kts 111°
2026-05-04 11:36 51.02281 2.04462 28500 ft 558 kts 111°
2026-05-04 11:36 51.00790 2.10154 28938 ft 557 kts 111°
2026-05-04 11:37 50.99302 2.15821 29367 ft 556 kts 112°
2026-05-04 11:37 50.97810 2.21480 29795 ft 555 kts 112°
2026-05-04 11:37 50.96315 2.27112 30223 ft 554 kts 112°
2026-05-04 11:37 50.94817 2.32740 30647 ft 553 kts 112°
2026-05-04 11:38 50.93317 2.38360 31079 ft 552 kts 112°
2026-05-04 11:38 50.91819 2.43960 31479 ft 552 kts 112°
2026-05-04 11:38 50.90322 2.49548 31890 ft 551 kts 112°
2026-05-04 11:38 50.88827 2.55129 32296 ft 550 kts 112°
2026-05-04 11:39 50.87332 2.60696 32695 ft 549 kts 112°
2026-05-04 11:39 50.85834 2.66254 33093 ft 548 kts 112°
2026-05-04 11:40 50.76836 2.99369 35421 ft 544 kts 112°
2026-05-04 11:41 50.75337 3.04843 35796 ft 543 kts 112°
2026-05-04 11:41 50.73833 3.10314 36153 ft 542 kts 112°
2026-05-04 11:41 50.72330 3.15769 36481 ft 542 kts 112°
2026-05-04 11:41 50.70827 3.21212 36786 ft 541 kts 112°
2026-05-04 11:42 50.69318 3.26662 37079 ft 541 kts 113°
2026-05-04 11:42 50.67809 3.32099 37362 ft 541 kts 113°
2026-05-04 11:42 50.66298 3.37538 37637 ft 541 kts 113°
2026-05-04 11:42 50.64791 3.42965 37899 ft 542 kts 113°
2026-05-04 11:43 50.63276 3.48412 38167 ft 542 kts 113°
2026-05-04 11:43 50.61760 3.53851 38424 ft 542 kts 113°
2026-05-04 11:43 50.60237 3.59281 38673 ft 542 kts 113°
2026-05-04 11:43 50.58714 3.64694 38902 ft 542 kts 113°
2026-05-04 11:44 50.57195 3.70080 38998 ft 543 kts 113°
2026-05-04 11:44 50.54133 3.80921 38999 ft 542 kts 113°
2026-05-04 11:45 50.51055 3.91770 39008 ft 542 kts 113°
2026-05-04 11:45 50.47965 4.02582 39003 ft 542 kts 114°
2026-05-04 11:46 50.44874 4.13369 39006 ft 542 kts 114°
2026-05-04 11:46 50.41771 4.24147 39005 ft 542 kts 114°
2026-05-04 11:47 50.38646 4.34929 39010 ft 543 kts 114°
2026-05-04 11:47 50.35515 4.45698 39018 ft 543 kts 114°
2026-05-04 11:48 50.32378 4.56457 39015 ft 543 kts 114°
2026-05-04 11:48 50.29231 4.67206 39018 ft 544 kts 114°
2026-05-04 11:49 50.26092 4.77878 39018 ft 544 kts 114°
2026-05-04 11:49 50.22920 4.88606 39017 ft 544 kts 114°
2026-05-04 11:50 50.19732 4.99324 39021 ft 544 kts 114°
2026-05-04 11:50 50.16545 5.10032 39016 ft 543 kts 114°
2026-05-04 11:51 50.13345 5.20711 39024 ft 543 kts 115°
2026-05-04 11:51 50.10130 5.31373 39021 ft 544 kts 115°
2026-05-04 11:52 50.06908 5.42027 39012 ft 544 kts 115°
2026-05-04 11:52 50.03678 5.52683 39001 ft 544 kts 115°
2026-05-04 11:53 50.00436 5.63325 39005 ft 545 kts 115°
2026-05-04 11:53 49.97174 5.73966 39010 ft 545 kts 115°
2026-05-04 11:55 49.84061 6.16329 39028 ft 545 kts 115°
2026-05-04 11:56 49.81288 6.25183 39011 ft 545 kts 115°
2026-05-04 11:56 49.77981 6.35727 39027 ft 545 kts 115°
2026-05-04 11:57 49.74654 6.46264 39017 ft 545 kts 116°
2026-05-04 11:57 49.71021 6.56534 39029 ft 544 kts 122°
2026-05-04 11:58 49.67036 6.66476 39013 ft 544 kts 122°
2026-05-04 11:58 49.63091 6.76295 39020 ft 544 kts 122°
2026-05-04 11:59 49.59041 6.86321 39014 ft 545 kts 122°
2026-05-04 11:59 49.54748 6.95911 39013 ft 544 kts 128°
2026-05-04 12:00 49.50262 7.05043 39027 ft 544 kts 129°
2026-05-04 12:00 49.45569 7.14419 39028 ft 544 kts 129°
2026-05-04 12:01 49.40986 7.23594 39018 ft 544 kts 129°
2026-05-04 12:02 49.24865 7.55834 39027 ft 544 kts 129°
2026-05-04 12:03 49.20237 7.64983 39006 ft 544 kts 129°
2026-05-04 12:03 49.15601 7.74131 39027 ft 544 kts 129°
2026-05-04 12:04 49.10970 7.83267 39028 ft 543 kts 129°
2026-05-04 12:04 49.06326 7.92367 39011 ft 544 kts 128°
2026-05-04 12:05 49.01673 8.01454 39026 ft 544 kts 128°
2026-05-04 12:05 48.97016 8.10535 39028 ft 544 kts 128°
2026-05-04 12:06 48.92352 8.19601 39028 ft 544 kts 128°
2026-05-04 12:06 48.87678 8.28650 39026 ft 544 kts 128°
2026-05-04 12:07 48.82997 8.37681 39017 ft 544 kts 128°
2026-05-04 12:07 48.78301 8.46705 39011 ft 545 kts 128°
2026-05-04 12:08 48.73490 8.55584 39002 ft 545 kts 136°
2026-05-04 12:08 48.68004 8.63506 39006 ft 546 kts 137°
2026-05-04 12:09 48.62487 8.71409 39010 ft 546 kts 137°
2026-05-04 12:09 48.56962 8.79276 39016 ft 546 kts 138°
2026-05-04 12:10 48.51433 8.87133 39027 ft 546 kts 138°
2026-05-04 12:10 48.45899 8.94969 39028 ft 546 kts 138°
2026-05-04 12:11 48.40359 9.02778 39026 ft 545 kts 138°
2026-05-04 12:11 48.34819 9.10570 39016 ft 546 kts 138°
2026-05-04 12:12 48.29266 9.18370 39013 ft 547 kts 138°
2026-05-04 12:12 48.23697 9.26155 39020 ft 547 kts 138°
2026-05-04 12:14 48.01400 9.56869 38609 ft 543 kts 146°
2026-05-04 12:15 47.98305 9.60088 38414 ft 542 kts 148°
2026-05-04 12:15 47.95188 9.63257 38206 ft 542 kts 148°
2026-05-04 12:15 47.92116 9.66391 38013 ft 542 kts 148°
2026-05-04 12:15 47.88968 9.69612 37814 ft 542 kts 148°
2026-05-04 12:16 47.85911 9.72743 37616 ft 542 kts 148°
2026-05-04 12:16 47.82758 9.75968 37413 ft 542 kts 148°
2026-05-04 12:16 47.79757 9.79026 37217 ft 542 kts 148°
2026-05-04 12:16 47.76640 9.82188 36992 ft 542 kts 148°
2026-05-04 12:17 47.70367 9.88518 37006 ft 542 kts 148°
2026-05-04 12:17 47.64125 9.94800 37009 ft 542 kts 148°
2026-05-04 12:18 47.57881 10.01081 37219 ft 544 kts 148°
2026-05-04 12:18 47.54897 10.04084 37347 ft 544 kts 148°
2026-05-04 12:18 47.51838 10.07157 37465 ft 544 kts 148°
2026-05-04 12:19 47.48699 10.10300 37586 ft 546 kts 148°
2026-05-04 12:19 47.45545 10.13455 37711 ft 547 kts 148°
2026-05-04 12:19 47.42412 10.16587 37836 ft 538 kts 148°
2026-05-04 12:19 47.39355 10.19642 37972 ft 526 kts 148°
2026-05-04 12:20 47.36362 10.22630 38018 ft 512 kts 147°
2026-05-04 12:20 47.33512 10.25465 38004 ft 497 kts 147°
2026-05-04 12:20 47.30718 10.28236 38712 ft 465 kts 149°
2026-05-04 12:20 47.28120 10.30826 38969 ft 442 kts 149°
2026-05-04 12:21 47.23020 10.35848 39059 ft 443 kts 150°
2026-05-04 12:21 47.17895 10.40884 39056 ft 443 kts 149°
2026-05-04 12:22 47.12771 10.45940 39056 ft 443 kts 149°
2026-05-04 12:22 47.07629 10.50979 39057 ft 444 kts 152°
2026-05-04 12:23 47.02032 10.54554 39067 ft 437 kts 166°
2026-05-04 12:23 46.96213 10.57164 39069 ft 437 kts 166°
2026-05-04 12:24 46.90393 10.59788 39065 ft 437 kts 166°
2026-05-04 12:24 46.84570 10.62421 39084 ft 438 kts 166°
2026-05-04 12:25 46.78745 10.65053 39107 ft 438 kts 166°
2026-05-04 12:25 46.72914 10.67667 39109 ft 438 kts 166°
2026-05-04 12:26 46.67083 10.70269 39121 ft 438 kts 166°
2026-05-04 12:26 46.61290 10.72843 39137 ft 439 kts 166°
2026-05-04 12:27 46.55409 10.75437 39141 ft 439 kts 166°
2026-05-04 12:27 46.49599 10.77995 39154 ft 439 kts 166°
2026-05-04 12:28 46.43753 10.80574 39164 ft 438 kts 166°
2026-05-04 12:28 46.37929 10.83127 39194 ft 438 kts 166°
2026-05-04 12:29 46.32355 10.86738 39196 ft 445 kts 148°
2026-05-04 12:29 46.29955 10.89597 39207 ft 449 kts 137°
2026-05-04 12:29 46.27937 10.93062 39212 ft 453 kts 127°
2026-05-04 12:30 46.24719 11.00950 39218 ft 456 kts 122°
2026-05-04 12:30 46.21533 11.08876 39217 ft 456 kts 123°
2026-05-04 12:31 46.18338 11.16778 39210 ft 456 kts 123°
2026-05-04 12:31 46.15139 11.24685 39193 ft 455 kts 123°
2026-05-04 12:32 46.10337 11.36507 39130 ft 455 kts 123°
2026-05-04 12:33 46.07135 11.44378 39144 ft 455 kts 123°
2026-05-04 12:33 46.03925 11.52247 39130 ft 456 kts 123°
2026-05-04 12:34 46.01258 11.58779 39128 ft 456 kts 123°
2026-05-04 12:34 45.98033 11.66634 39100 ft 456 kts 123°
2026-05-04 12:35 45.94792 11.74488 39121 ft 457 kts 123°
2026-05-04 12:35 45.91543 11.82351 39116 ft 457 kts 123°
2026-05-04 12:36 45.88284 11.90203 39097 ft 458 kts 123°
2026-05-04 12:36 45.85035 11.98035 39101 ft 456 kts 123°
2026-05-04 12:37 45.81791 12.05853 39083 ft 456 kts 123°
2026-05-04 12:37 45.78533 12.13653 39084 ft 456 kts 123°
2026-05-04 12:38 45.75264 12.21443 39084 ft 456 kts 123°
2026-05-04 12:38 45.71996 12.29214 39085 ft 455 kts 123°
2026-05-04 12:39 45.68728 12.36984 39085 ft 456 kts 123°
2026-05-04 12:39 45.65450 12.44758 39104 ft 457 kts 123°
2026-05-04 12:40 45.62159 12.52528 39101 ft 457 kts 123°
2026-05-04 12:40 45.58861 12.60302 39104 ft 457 kts 123°
2026-05-04 12:41 45.55565 12.68050 39098 ft 456 kts 123°
2026-05-04 12:41 45.52266 12.75778 39097 ft 456 kts 123°
2026-05-04 12:42 45.48979 12.83447 39091 ft 456 kts 123°
2026-05-04 12:42 45.45668 12.91149 39095 ft 456 kts 123°
2026-05-04 12:43 45.42349 12.98863 39088 ft 456 kts 123°
2026-05-04 12:43 45.39026 13.06559 39096 ft 457 kts 123°
2026-05-04 12:44 45.35692 13.14255 39099 ft 457 kts 124°
2026-05-04 12:44 45.32353 13.21936 39100 ft 457 kts 124°
2026-05-04 12:45 45.28331 13.28825 39107 ft 453 kts 137°
2026-05-04 12:45 45.23913 13.35191 39105 ft 453 kts 137°
2026-05-04 12:46 45.19490 13.41559 39109 ft 453 kts 137°
2026-05-04 12:46 45.15070 13.47931 39109 ft 454 kts 137°
2026-05-04 12:47 45.10629 13.54300 39106 ft 454 kts 137°
2026-05-04 12:47 45.06181 13.60669 39115 ft 455 kts 137°
2026-05-04 12:48 45.01731 13.67027 39113 ft 455 kts 137°
2026-05-04 12:48 44.97302 13.73337 39130 ft 455 kts 137°
2026-05-04 12:49 44.92846 13.79676 39139 ft 455 kts 137°
2026-05-04 12:49 44.88374 13.86018 39136 ft 456 kts 137°
2026-05-04 12:50 44.83905 13.92356 39137 ft 456 kts 137°
2026-05-04 12:50 44.79424 13.98690 39133 ft 456 kts 137°
2026-05-04 12:51 44.74931 14.04993 39137 ft 456 kts 137°
2026-05-04 12:51 44.70438 14.11291 39119 ft 456 kts 137°
2026-05-04 12:52 44.65950 14.17598 39127 ft 457 kts 137°
2026-05-04 12:52 44.61443 14.23894 39113 ft 457 kts 137°
2026-05-04 12:53 44.56928 14.30189 39122 ft 457 kts 137°
2026-05-04 12:53 44.52410 14.36472 39116 ft 457 kts 137°
2026-05-04 12:54 44.47895 14.42751 39121 ft 457 kts 137°
2026-05-04 12:54 44.45630 14.45896 38507 ft 462 kts 137°
2026-05-04 12:54 44.43339 14.49069 37406 ft 462 kts 137°
2026-05-04 12:54 44.41079 14.52193 37210 ft 451 kts 137°
2026-05-04 12:55 44.38877 14.55239 37108 ft 440 kts 137°
2026-05-04 12:55 44.36724 14.58215 36993 ft 430 kts 137°
2026-05-04 12:55 44.34620 14.61120 36889 ft 422 kts 137°
2026-05-04 12:56 44.30403 14.66923 36690 ft 430 kts 137°
2026-05-04 12:56 44.26123 14.72799 36491 ft 432 kts 137°
2026-05-04 12:56 44.23975 14.75745 36285 ft 434 kts 137°
2026-05-04 12:57 44.21806 14.78715 35539 ft 440 kts 137°
2026-05-04 12:57 44.19606 14.81727 34774 ft 446 kts 136°
2026-05-04 12:57 44.17376 14.84771 33920 ft 452 kts 136°
2026-05-04 12:57 44.15101 14.87870 32928 ft 459 kts 136°
2026-05-04 12:58 44.12839 14.90955 31996 ft 465 kts 136°
2026-05-04 12:58 44.10512 14.94129 31014 ft 471 kts 137°
2026-05-04 12:58 44.08173 14.97314 30410 ft 469 kts 136°
2026-05-04 12:58 44.05847 15.00479 29739 ft 466 kts 137°
2026-05-04 12:59 44.03533 15.03622 29108 ft 462 kts 137°
2026-05-04 12:59 44.01245 15.06724 28471 ft 458 kts 137°
2026-05-04 12:59 43.98975 15.09800 27842 ft 454 kts 136°
2026-05-04 12:59 43.96713 15.12861 27212 ft 451 kts 136°
2026-05-04 13:00 43.94471 15.15886 26597 ft 447 kts 136°
2026-05-04 13:00 43.92228 15.18850 25994 ft 443 kts 138°
2026-05-04 13:00 43.89948 15.21712 25409 ft 440 kts 139°
2026-05-04 13:00 43.87675 15.24461 24828 ft 437 kts 140°
2026-05-04 13:01 43.85379 15.27191 24255 ft 433 kts 140°
2026-05-04 13:01 43.83099 15.29900 23697 ft 430 kts 140°
2026-05-04 13:01 43.80844 15.32597 23092 ft 426 kts 139°
2026-05-04 13:01 43.78621 15.35282 22581 ft 421 kts 139°
2026-05-04 13:02 43.76435 15.37938 22071 ft 415 kts 139°
2026-05-04 13:02 43.74284 15.40567 21585 ft 410 kts 139°
2026-05-04 13:02 43.72158 15.43164 21090 ft 406 kts 139°
2026-05-04 13:02 43.70049 15.45734 20581 ft 402 kts 139°
2026-05-04 13:03 43.67960 15.48272 20075 ft 398 kts 139°
2026-05-04 13:03 43.65881 15.50786 19558 ft 395 kts 140°
2026-05-04 13:03 43.63824 15.53270 19043 ft 391 kts 140°
2026-05-04 13:03 43.61783 15.55734 18520 ft 388 kts 140°
2026-05-04 13:04 43.59757 15.58175 17928 ft 385 kts 139°
2026-05-04 13:04 43.57749 15.60595 17388 ft 380 kts 140°
2026-05-04 13:04 43.55772 15.62977 16852 ft 376 kts 140°
2026-05-04 13:04 43.53816 15.65333 16318 ft 371 kts 139°
2026-05-04 13:05 43.51884 15.67654 15770 ft 367 kts 139°
2026-05-04 13:05 43.49970 15.69950 15247 ft 363 kts 139°
2026-05-04 13:05 43.48071 15.72226 14717 ft 360 kts 139°
2026-05-04 13:05 43.46192 15.74477 14190 ft 357 kts 139°
2026-05-04 13:06 43.44324 15.76711 13635 ft 354 kts 139°
2026-05-04 13:06 43.42475 15.78920 13101 ft 350 kts 139°
2026-05-04 13:06 43.40647 15.81105 12577 ft 345 kts 139°
2026-05-04 13:06 43.38845 15.83260 12068 ft 342 kts 139°
2026-05-04 13:07 43.37083 15.85366 11885 ft 329 kts 139°
2026-05-04 13:07 43.35387 15.87387 11757 ft 316 kts 139°
2026-05-04 13:07 43.33758 15.89326 11628 ft 305 kts 139°
2026-05-04 13:07 43.32192 15.91220 11472 ft 295 kts 135°
2026-05-04 13:08 43.30932 15.93397 11356 ft 292 kts 122°
2026-05-04 13:08 43.30025 15.95925 10908 ft 295 kts 114°
2026-05-04 13:08 43.29204 15.98515 10472 ft 297 kts 114°
2026-05-04 13:08 43.28387 16.01074 10117 ft 290 kts 114°
2026-05-04 13:09 43.27584 16.03567 9440 ft 288 kts 114°
2026-05-04 13:09 43.26770 16.06081 8773 ft 287 kts 113°
2026-05-04 13:09 43.25964 16.08564 8267 ft 283 kts 113°
2026-05-04 13:09 43.25202 16.11074 7796 ft 287 kts 104°
2026-05-04 13:10 43.25130 16.13763 7395 ft 285 kts 75°
2026-05-04 13:10 43.26010 16.16139 7145 ft 278 kts 49°
2026-05-04 13:10 43.27435 16.17898 6872 ft 274 kts 35°
2026-05-04 13:10 43.29055 16.19247 6559 ft 272 kts 30°
2026-05-04 13:11 43.30683 16.20560 6230 ft 271 kts 30°
2026-05-04 13:11 43.32305 16.21874 5894 ft 270 kts 30°
2026-05-04 13:11 43.33909 16.23174 5708 ft 264 kts 30°
2026-05-04 13:11 43.35461 16.24435 5580 ft 255 kts 30°
2026-05-04 13:12 43.36964 16.25654 5453 ft 247 kts 30°
2026-05-04 13:12 43.38421 16.26834 5323 ft 239 kts 30°
2026-05-04 13:12 43.39744 16.28136 5204 ft 231 kts 41°
2026-05-04 13:12 43.40918 16.29582 5072 ft 222 kts 41°
2026-05-04 13:13 43.41676 16.30505 4970 ft 218 kts 41°
2026-05-04 13:13 43.42805 16.31873 4728 ft 215 kts 41°
2026-05-04 13:13 43.43929 16.33236 4447 ft 215 kts 41°
2026-05-04 13:13 43.45064 16.34614 4146 ft 215 kts 41°
2026-05-04 13:14 43.46174 16.35963 3857 ft 216 kts 41°
2026-05-04 13:14 43.47298 16.37335 3551 ft 217 kts 41°
2026-05-04 13:14 43.48440 16.38721 3226 ft 219 kts 41°
2026-05-04 13:14 43.49576 16.40087 3059 ft 212 kts 41°
2026-05-04 13:15 43.50645 16.41380 2956 ft 200 kts 42°
2026-05-04 13:15 43.51670 16.42618 2815 ft 192 kts 40°
2026-05-04 13:15 43.52668 16.43820 2699 ft 189 kts 41°
2026-05-04 13:15 43.53687 16.44893 2552 ft 179 kts 22°
2026-05-04 13:16 43.54873 16.44997 2442 ft 171 kts 338°
2026-05-04 13:16 43.55819 16.44125 2279 ft 161 kts 297°
2026-05-04 13:16 43.55958 16.42688 2112 ft 152 kts 256°
2026-05-04 13:16 43.55801 16.41249 1970 ft 152 kts 263°
2026-05-04 13:17 43.55743 16.39813 1877 ft 141 kts 263°
2026-05-04 13:17 43.55820 16.38490 1726 ft 137 kts 273°
2026-05-04 13:17 43.55956 16.37209 1483 ft 135 kts 273°
2026-05-04 13:17 43.56049 16.35944 1236 ft 133 kts 270°
2026-05-04 13:18 43.56069 16.34689 883 ft 129 kts 259°
2026-05-04 13:18 43.55774 16.33499 646 ft 136 kts 244°
2026-05-04 13:18 43.55325 16.32408 407 ft 132 kts 237°
2026-05-04 13:18 43.54782 16.31394 166 ft 130 kts 231°
2026-05-04 13:19 43.54252 16.30441 54 ft 110 kts 233°
2026-05-04 13:19 43.53895 16.29797 69 ft 71 kts 232°
2026-05-04 13:19 43.53731 16.29504 80 ft 18 kts 224°
2026-05-04 13:19 43.53698 16.29532 69 ft 12 kts 105°
2026-05-04 13:20 43.53679 16.29646 65 ft 8 kts 97°
2026-05-04 13:20 43.53659 16.29733 65 ft 11 kts 96°
2026-05-04 13:20 43.53658 16.29749 64 ft 0 kts 95°